Weather History for Emporia, VA

Change the Weather History Date:

Monday, August 25, 2014

  Actual Average Record
Temperature  
Mean Temperature 67 °F -  
Max Temperature 77 °F 84 °F 98 °F (2007)
Min Temperature 57 °F 61 °F 51 °F (1984)
Cooling Degree Days 2    
Growing Degree Days 17 (Base 50)    
Moisture  
Dew Point 60 °F    
Average Humidity 83    
Maximum Humidity 100    
Minimum Humidity 57    
Precipitation  
Precipitation 0.00 in - - ()
Sea Level Pressure  
Sea Level Pressure 30.13 in    
Wind  
Wind Speed 4 mph (North)    
Max Wind Speed 10 mph    
Max Gust Speed 16 mph    
Visibility 10 miles    
Events      
Averages and records for this station are not official NWS values.
T = Trace of Precipitation, MM = Missing Value Source: NWS Daily Summary

Daily Weather History Graph

Daily Weather History Graph

Search for Another Location

Airport:

Trip Planner

Search our weather history database for the weather conditions in past years. The results will help you decide how hot, cold, wet, or windy it might be!

Date:

Astronomy

Aug. 25, 2014 Rise Set
Actual Time 6:35 AM EDT 7:47 PM EDT
Civil Twilight 6:08 AM EDT 8:14 PM EDT
Nautical Twilight 5:36 AM EDT 8:46 PM EDT
Astronomical Twilight 5:03 AM EDT 9:19 PM EDT
Moon 6:37 AM EDT (8/25) 7:39 PM EDT (8/25)
Length of Visible Light 14h 06m
Length of Day
13h 12m
New Moon, 0% of the Moon is Illuminated
Aug 25
New Moon
Sep 2
First Quarter
Sep 8
Full
Sep 15
Last Quarter
Sep 24
New

Hourly Weather History & Observations

Time (EDT) Temp. Dew Point Humidity Pressure Visibility Wind Dir Wind Speed Gust Speed Precip Events Conditions
12:15 AM 59.0 °F 57.2 °F 94% 30.13 in 10.0 mi NW 3.5 mph - N/A   Clear
12:35 AM 59.0 °F 57.2 °F 94% 30.14 in 10.0 mi NW 3.5 mph - N/A   Clear
12:55 AM 59.0 °F 57.2 °F 94% 30.14 in 10.0 mi NW 4.6 mph - N/A   Clear
1:15 AM 59.0 °F 57.2 °F 94% 30.14 in 10.0 mi NW 3.5 mph - N/A   Clear
1:35 AM 59.0 °F 57.2 °F 94% 30.13 in 10.0 mi NW 3.5 mph - N/A   Clear
1:55 AM 59.0 °F 57.2 °F 94% 30.13 in 10.0 mi NW 3.5 mph - N/A   Clear
2:15 AM 57.2 °F 55.4 °F 94% 30.12 in 10.0 mi Calm Calm - N/A   Clear
2:35 AM 57.2 °F 57.2 °F 100% 30.12 in 10.0 mi NW 4.6 mph - N/A   Clear
2:55 AM 59.0 °F 57.2 °F 94% 30.12 in 10.0 mi Calm Calm - N/A   Clear
3:15 AM 57.2 °F 55.4 °F 94% 30.11 in 10.0 mi Calm Calm - N/A   Clear
3:35 AM 57.2 °F 55.4 °F 94% 30.11 in 10.0 mi NW 4.6 mph - N/A   Clear
3:55 AM 57.2 °F 55.4 °F 94% 30.10 in 10.0 mi Calm Calm - N/A   Clear
4:15 AM 57.2 °F 55.4 °F 94% 30.11 in 10.0 mi WNW 3.5 mph - N/A   Clear
4:35 AM 57.2 °F 57.2 °F 100% 30.11 in 10.0 mi Calm Calm - N/A   Clear
5:15 AM 57.2 °F 55.4 °F 94% 30.11 in 10.0 mi NW 4.6 mph - N/A   Clear
5:35 AM 57.2 °F 55.4 °F 94% 30.11 in 10.0 mi NW 5.8 mph - N/A   Clear
5:55 AM 57.2 °F 55.4 °F 94% 30.12 in 10.0 mi NW 4.6 mph - N/A   Clear
6:15 AM 57.2 °F 57.2 °F 100% 30.11 in 10.0 mi NW 6.9 mph - N/A   Clear
6:35 AM 57.2 °F 57.2 °F 100% 30.12 in 10.0 mi NW 4.6 mph - N/A   Clear
6:55 AM 57.2 °F 55.4 °F 94% 30.12 in 10.0 mi NNW 3.5 mph - N/A   Clear
7:15 AM 59.0 °F 57.2 °F 94% 30.12 in 10.0 mi NNW 4.6 mph - N/A   Clear
7:35 AM 60.8 °F 59.0 °F 94% 30.12 in 10.0 mi NNW 4.6 mph - N/A   Clear
7:55 AM 60.8 °F 59.0 °F 94% 30.12 in 10.0 mi NNW 6.9 mph - N/A   Clear
8:15 AM 62.6 °F 60.8 °F 94% 30.12 in 10.0 mi NNW 8.1 mph - N/A   Clear
8:35 AM 64.4 °F 60.8 °F 88% 30.13 in 10.0 mi North 6.9 mph - N/A   Clear
8:55 AM 66.2 °F 62.6 °F 88% 30.13 in 10.0 mi NNW 8.1 mph - N/A   Clear
9:15 AM 68.0 °F 62.6 °F 83% 30.13 in 10.0 mi NNW 8.1 mph - N/A   Clear
9:35 AM 68.0 °F 62.6 °F 83% 30.13 in 10.0 mi North 9.2 mph - N/A   Clear
9:55 AM 69.8 °F 62.6 °F 78% 30.14 in 10.0 mi NNE 10.4 mph - N/A   Clear
10:35 AM 71.6 °F 62.6 °F 73% 30.15 in 10.0 mi NNE 6.9 mph - N/A   Scattered Clouds
10:55 AM 73.4 °F 62.6 °F 69% 30.15 in 10.0 mi North 6.9 mph - N/A   Scattered Clouds
11:15 AM 73.4 °F 62.6 °F 69% 30.15 in 10.0 mi North 8.1 mph - N/A   Mostly Cloudy
11:35 AM 73.4 °F 62.6 °F 69% 30.15 in - NNW 10.4 mph - N/A   Mostly Cloudy
11:55 AM 77.0 °F 62.6 °F 61% 30.15 in 10.0 mi NNW 8.1 mph - N/A   Mostly Cloudy
12:15 PM 73.4 °F 62.6 °F 69% 30.16 in - NNE 4.6 mph - N/A   Mostly Cloudy
12:35 PM 73.4 °F 62.6 °F 69% 30.16 in 10.0 mi North 5.8 mph - N/A   Overcast
12:55 PM 73.4 °F 62.6 °F 69% 30.16 in 10.0 mi North 6.9 mph - N/A   Overcast
1:15 PM 73.4 °F 62.6 °F 69% 30.15 in - North 8.1 mph - N/A   Overcast
1:35 PM 73.4 °F 62.6 °F 69% 30.15 in 10.0 mi North 8.1 mph - N/A   Overcast
1:55 PM 77.0 °F 64.4 °F 65% 30.15 in 10.0 mi North 9.2 mph - N/A   Overcast
2:15 PM 77.0 °F 62.6 °F 61% 30.15 in - NNE 6.9 mph - N/A   Overcast
2:35 PM 77.0 °F 62.6 °F 61% 30.14 in 10.0 mi NNE 6.9 mph - N/A   Overcast
2:55 PM 75.2 °F 62.6 °F 65% 30.14 in 10.0 mi North 10.4 mph - N/A   Overcast
3:15 PM 73.4 °F 62.6 °F 69% 30.14 in 10.0 mi NE 3.5 mph - N/A   Overcast
3:35 PM 75.2 °F 62.6 °F 65% 30.13 in 10.0 mi NE 5.8 mph - N/A   Overcast
3:55 PM 75.2 °F 62.6 °F 65% 30.13 in 10.0 mi ENE 6.9 mph - N/A   Overcast
4:15 PM 77.0 °F 62.6 °F 61% 30.12 in - NNE 8.1 mph - N/A   Mostly Cloudy
4:35 PM 77.0 °F 62.6 °F 61% 30.12 in 10.0 mi NNE 9.2 mph - N/A   Scattered Clouds
4:55 PM 77.0 °F 60.8 °F 57% 30.12 in 10.0 mi NNE 6.9 mph 16.1 mph N/A   Scattered Clouds
5:15 PM 75.2 °F 60.8 °F 61% 30.12 in 10.0 mi NNE 6.9 mph - N/A   Scattered Clouds
5:35 PM 75.2 °F 62.6 °F 65% 30.12 in 10.0 mi North 3.5 mph - N/A   Scattered Clouds
5:55 PM 77.0 °F 60.8 °F 57% 30.12 in - NE 6.9 mph - N/A   Scattered Clouds
6:15 PM 75.2 °F 60.8 °F 61% 30.12 in 10.0 mi Calm Calm - N/A   Scattered Clouds
6:35 PM 73.4 °F 62.6 °F 69% 30.12 in 10.0 mi North 4.6 mph - N/A   Clear
6:55 PM 73.4 °F 62.6 °F 69% 30.12 in 10.0 mi Calm Calm - N/A   Clear
7:15 PM 71.6 °F 60.8 °F 69% 30.12 in 10.0 mi NNE 3.5 mph - N/A   Clear
7:35 PM 69.8 °F 62.6 °F 78% 30.12 in 10.0 mi Calm Calm - N/A   Clear
7:55 PM 64.4 °F 62.6 °F 94% 30.13 in 10.0 mi Calm Calm - N/A   Clear
8:15 PM 62.6 °F 60.8 °F 94% 30.13 in 10.0 mi Calm Calm - N/A   Clear
8:35 PM 62.6 °F 60.8 °F 94% 30.13 in 10.0 mi Calm Calm - N/A   Clear
8:55 PM 62.6 °F 60.8 °F 94% 30.13 in 10.0 mi Calm Calm - N/A   Clear
9:15 PM 60.8 °F 60.8 °F 100% 30.14 in 10.0 mi Calm Calm - N/A   Clear
9:35 PM 60.8 °F 59.0 °F 94% 30.14 in 10.0 mi Calm Calm - N/A   Clear
9:55 PM 59.0 °F 59.0 °F 100% 30.14 in 10.0 mi Calm Calm - N/A   Clear
10:15 PM 60.8 °F 60.8 °F 100% 30.15 in 10.0 mi Calm Calm - N/A   Clear
10:35 PM 60.8 °F 59.0 °F 94% 30.15 in 10.0 mi Calm Calm - N/A   Clear
10:55 PM 59.0 °F 59.0 °F 100% 30.15 in 10.0 mi Calm Calm - N/A   Clear
11:15 PM 59.0 °F 59.0 °F 100% 30.15 in 10.0 mi Calm Calm - N/A   Clear
11:35 PM 59.0 °F 57.2 °F 94% 30.15 in 10.0 mi NNW 3.5 mph - N/A   Clear
11:55 PM 59.0 °F 59.0 °F 100% 30.14 in 10.0 mi Calm Calm - N/A   Clear